IBE3162 LEMD-EGLL

Flight info

Callsign IBE3162
Flight time 2h 26m
Altitude 34000
Route SIE N858 DGO N867 NENEM DCT DIDIG UP87 ROXOG
Aircraft A321/M-SDE3FGHIRWY/LB1

Departure

Time 2026-04-30 11:38
Airport Adolfo Suárez Madrid–Barajas Airport (LEMD)

Arrival

Time 2026-04-30 14:04
Airport London Heathrow Airport (EGLL)
Time Latitude Longitude Altitude Speed Heading
2026-04-30 11:08 40.49411 -3.56877 1981 ft 0 kts 89°
2026-04-30 11:24 40.49411 -3.56879 1980 ft 2 kts 89°
2026-04-30 11:25 40.49413 -3.56948 1982 ft 4 kts 99°
2026-04-30 11:25 40.49419 -3.56982 1982 ft 4 kts 114°
2026-04-30 11:25 40.49439 -3.57009 1981 ft 0 kts 180°
2026-04-30 11:35 40.49410 -3.57009 1982 ft 12 kts 180°
2026-04-30 11:35 40.49315 -3.57022 1980 ft 13 kts 208°
2026-04-30 11:35 40.49286 -3.57123 1980 ft 12 kts 270°
2026-04-30 11:36 40.49276 -3.57218 1983 ft 10 kts 235°
2026-04-30 11:36 40.49199 -3.57246 1980 ft 16 kts 207°
2026-04-30 11:36 40.49180 -3.57380 1980 ft 15 kts 268°
2026-04-30 11:36 40.49232 -3.57463 1983 ft 12 kts 355°
2026-04-30 11:37 40.49307 -3.57465 1984 ft 2 kts 359°
2026-04-30 11:37 40.49353 -3.57466 1980 ft 29 kts 359°
2026-04-30 11:38 40.49790 -3.57466 1984 ft 96 kts 360°
2026-04-30 11:38 40.50646 -3.57472 1981 ft 148 kts 360°
2026-04-30 11:38 40.51815 -3.57479 1985 ft 187 kts 359°
2026-04-30 11:38 40.53081 -3.57486 2726 ft 173 kts
2026-04-30 11:39 40.54258 -3.57478 3468 ft 167 kts
2026-04-30 11:39 40.55454 -3.57478 3858 ft 181 kts 360°
2026-04-30 11:39 40.56793 -3.57490 4087 ft 203 kts 359°
2026-04-30 11:39 40.58273 -3.57505 4271 ft 224 kts 359°
2026-04-30 11:40 40.59865 -3.57401 4641 ft 233 kts 11°
2026-04-30 11:40 40.61403 -3.56691 5210 ft 235 kts 27°
2026-04-30 11:40 40.62875 -3.55773 5859 ft 235 kts 24°
2026-04-30 11:40 40.64480 -3.55403 6454 ft 237 kts 351°
2026-04-30 11:41 40.66091 -3.55888 7011 ft 240 kts 349°
2026-04-30 11:41 40.67761 -3.56082 7581 ft 243 kts 358°
2026-04-30 11:41 40.69452 -3.56061 8170 ft 244 kts
2026-04-30 11:41 40.71160 -3.55981 8733 ft 247 kts
2026-04-30 11:42 40.72884 -3.55903 9317 ft 249 kts 360°
2026-04-30 11:42 40.74642 -3.55879 9734 ft 261 kts 356°
2026-04-30 11:42 40.76498 -3.56003 9920 ft 280 kts 353°
2026-04-30 11:42 40.78472 -3.56217 10360 ft 287 kts 352°
2026-04-30 11:43 40.80473 -3.56462 10920 ft 290 kts 352°
2026-04-30 11:43 40.82491 -3.56716 11522 ft 292 kts 352°
2026-04-30 11:43 40.84528 -3.56965 12141 ft 295 kts 353°
2026-04-30 11:43 40.86579 -3.57206 12743 ft 297 kts 352°
2026-04-30 11:44 40.88642 -3.57445 13357 ft 299 kts 353°
2026-04-30 11:44 40.90720 -3.57683 13931 ft 302 kts 353°
2026-04-30 11:44 40.92878 -3.57932 14067 ft 320 kts 353°
2026-04-30 11:44 40.95152 -3.58193 14190 ft 337 kts 353°
2026-04-30 11:45 40.97545 -3.58468 14310 ft 353 kts 353°
2026-04-30 11:45 41.00045 -3.58757 14431 ft 368 kts 353°
2026-04-30 11:45 41.02655 -3.59053 14550 ft 383 kts 353°
2026-04-30 11:45 41.05345 -3.59357 14741 ft 393 kts 353°
2026-04-30 11:46 41.08084 -3.59669 15134 ft 397 kts 353°
2026-04-30 11:46 41.10843 -3.59984 15593 ft 398 kts 353°
2026-04-30 11:46 41.13615 -3.60215 15986 ft 402 kts 359°
2026-04-30 11:46 41.16390 -3.59698 16355 ft 408 kts 14°
2026-04-30 11:47 41.19058 -3.58370 16717 ft 412 kts 20°
2026-04-30 11:47 41.21721 -3.56915 17083 ft 414 kts 20°
2026-04-30 11:47 41.24354 -3.55472 17447 ft 416 kts 20°
2026-04-30 11:47 41.27041 -3.53997 17805 ft 419 kts 20°
2026-04-30 11:48 41.29779 -3.52497 18170 ft 421 kts 20°
2026-04-30 11:48 41.32497 -3.51013 18529 ft 423 kts 20°
2026-04-30 11:48 41.35189 -3.49545 18848 ft 425 kts 20°
2026-04-30 11:48 41.37928 -3.48052 19172 ft 426 kts 20°
2026-04-30 11:49 41.40679 -3.46546 19492 ft 429 kts 20°
2026-04-30 11:49 41.43445 -3.45024 19827 ft 431 kts 20°
2026-04-30 11:49 41.46221 -3.43494 20150 ft 432 kts 20°
2026-04-30 11:49 41.49011 -3.41959 20462 ft 435 kts 20°
2026-04-30 11:50 41.51810 -3.40420 20802 ft 437 kts 20°
2026-04-30 11:50 41.54632 -3.38866 21166 ft 438 kts 20°
2026-04-30 11:50 41.57451 -3.37308 21507 ft 440 kts 20°
2026-04-30 11:50 41.59333 -3.36267 21732 ft 442 kts 20°
2026-04-30 11:51 41.62183 -3.34693 22059 ft 444 kts 20°
2026-04-30 11:51 41.65047 -3.33110 22395 ft 446 kts 20°
2026-04-30 11:51 41.67918 -3.31523 22713 ft 448 kts 20°
2026-04-30 11:51 41.70809 -3.29926 23039 ft 450 kts 20°
2026-04-30 11:52 41.73708 -3.28318 23363 ft 453 kts 20°
2026-04-30 11:52 41.76632 -3.26693 23679 ft 455 kts 20°
2026-04-30 11:52 41.79556 -3.25066 23944 ft 457 kts 20°
2026-04-30 11:52 41.82497 -3.23428 24202 ft 459 kts 19°
2026-04-30 11:53 41.85452 -3.21781 24458 ft 461 kts 19°
2026-04-30 11:53 41.88419 -3.20126 24704 ft 463 kts 19°
2026-04-30 11:53 41.91401 -3.18460 24957 ft 465 kts 19°
2026-04-30 11:53 41.94385 -3.16791 25240 ft 466 kts 19°
2026-04-30 11:54 41.97388 -3.15112 25504 ft 468 kts 19°
2026-04-30 11:54 42.00399 -3.13427 25761 ft 470 kts 19°
2026-04-30 11:54 42.03426 -3.11736 26003 ft 471 kts 19°
2026-04-30 11:54 42.06464 -3.10041 26238 ft 473 kts 19°
2026-04-30 11:55 42.09500 -3.08341 26475 ft 475 kts 19°
2026-04-30 11:55 42.12564 -3.06620 26691 ft 477 kts 19°
2026-04-30 11:55 42.15589 -3.04918 26895 ft 478 kts 19°
2026-04-30 11:55 42.18659 -3.03186 27117 ft 479 kts 19°
2026-04-30 11:56 42.21738 -3.01446 27301 ft 480 kts 19°
2026-04-30 11:56 42.24823 -2.99700 27488 ft 481 kts 19°
2026-04-30 11:56 42.27916 -2.97952 27656 ft 483 kts 19°
2026-04-30 11:56 42.31021 -2.96194 27834 ft 484 kts 19°
2026-04-30 11:57 42.34113 -2.94440 28077 ft 483 kts 19°
2026-04-30 11:57 42.37213 -2.92681 28338 ft 483 kts 19°
2026-04-30 11:57 42.40308 -2.90924 28598 ft 481 kts 19°
2026-04-30 11:57 42.43443 -2.89403 28816 ft 477 kts 11°
2026-04-30 11:58 42.46674 -2.88526 29036 ft 472 kts
2026-04-30 11:58 42.49932 -2.88304 29250 ft 466 kts 354°
2026-04-30 11:58 42.53168 -2.88486 29457 ft 465 kts 353°
2026-04-30 11:58 42.56404 -2.88663 29667 ft 465 kts 353°
2026-04-30 11:59 42.59634 -2.88828 29906 ft 465 kts 354°
2026-04-30 11:59 42.62861 -2.88991 30137 ft 464 kts 354°
2026-04-30 11:59 42.66083 -2.89153 30326 ft 463 kts 353°
2026-04-30 11:59 42.69306 -2.89314 30511 ft 463 kts 353°
2026-04-30 12:00 42.72517 -2.89477 30700 ft 462 kts 353°
2026-04-30 12:00 42.75730 -2.89640 30892 ft 462 kts 353°
2026-04-30 12:00 42.78933 -2.89808 31092 ft 461 kts 353°
2026-04-30 12:00 42.82135 -2.89979 31292 ft 460 kts 353°
2026-04-30 12:01 42.85339 -2.90154 31494 ft 459 kts 353°
2026-04-30 12:01 42.88536 -2.90328 31674 ft 459 kts 353°
2026-04-30 12:01 42.91731 -2.90498 31859 ft 459 kts 353°
2026-04-30 12:01 42.94913 -2.90665 32051 ft 459 kts 353°
2026-04-30 12:02 42.98066 -2.90831 32239 ft 458 kts 353°
2026-04-30 12:02 43.01247 -2.90999 32449 ft 457 kts 353°
2026-04-30 12:02 43.04427 -2.91167 32676 ft 456 kts 353°
2026-04-30 12:02 43.07595 -2.91333 32891 ft 456 kts 352°
2026-04-30 12:03 43.10761 -2.91498 33121 ft 455 kts 352°
2026-04-30 12:03 43.17081 -2.91826 33533 ft 454 kts 352°
2026-04-30 12:03 43.20242 -2.91992 33724 ft 454 kts 352°
2026-04-30 12:04 43.23394 -2.92155 33905 ft 453 kts 352°
2026-04-30 12:04 43.26545 -2.92320 34056 ft 452 kts 352°
2026-04-30 12:04 43.29682 -2.92528 34086 ft 448 kts 348°
2026-04-30 12:05 43.35718 -2.94180 34083 ft 441 kts 341°
2026-04-30 12:05 43.41710 -2.96065 34088 ft 442 kts 342°
2026-04-30 12:06 43.47699 -2.97928 34090 ft 442 kts 342°
2026-04-30 12:06 43.53695 -2.99800 34096 ft 442 kts 342°
2026-04-30 12:07 43.59690 -3.01677 34131 ft 442 kts 342°
2026-04-30 12:07 43.65680 -3.03565 34125 ft 442 kts 342°
2026-04-30 12:08 43.71680 -3.05424 34101 ft 442 kts 343°
2026-04-30 12:08 43.77714 -3.07150 34110 ft 443 kts 344°
2026-04-30 12:09 43.83720 -3.08831 34113 ft 443 kts 344°
2026-04-30 12:09 43.89750 -3.10555 34115 ft 440 kts 344°
2026-04-30 12:10 43.95638 -3.12298 34109 ft 427 kts 343°
2026-04-30 12:10 44.01376 -3.13958 34112 ft 417 kts 348°
2026-04-30 12:11 44.07135 -3.13901 34112 ft 414 kts
2026-04-30 12:11 44.12647 -3.11776 34109 ft 406 kts 13°
2026-04-30 12:12 44.17970 -3.09476 34111 ft 394 kts 12°
2026-04-30 12:12 44.23126 -3.07259 34110 ft 381 kts 13°
2026-04-30 12:13 44.28060 -3.05115 34122 ft 367 kts 14°
2026-04-30 12:13 44.32835 -3.03015 34107 ft 353 kts 13°
2026-04-30 12:14 44.37427 -3.00992 34103 ft 338 kts 13°
2026-04-30 12:14 44.41858 -2.99086 33870 ft 331 kts 13°
2026-04-30 12:14 44.44068 -2.98165 33595 ft 332 kts 13°
2026-04-30 12:15 44.46290 -2.97261 33384 ft 331 kts 12°
2026-04-30 12:15 44.48496 -2.96382 33274 ft 328 kts 12°
2026-04-30 12:15 44.50682 -2.95531 33124 ft 325 kts 11°
2026-04-30 12:15 44.52859 -2.94704 32930 ft 324 kts 11°
2026-04-30 12:16 44.55038 -2.93899 32743 ft 323 kts 11°
2026-04-30 12:16 44.57203 -2.93121 32585 ft 321 kts 10°
2026-04-30 12:16 44.59364 -2.92367 32456 ft 318 kts 11°
2026-04-30 12:16 44.61511 -2.91640 32331 ft 316 kts 11°
2026-04-30 12:17 44.65779 -2.90265 31986 ft 315 kts 10°
2026-04-30 12:17 44.70094 -2.88878 32110 ft 317 kts 12°
2026-04-30 12:18 44.72224 -2.88147 32376 ft 314 kts 12°
2026-04-30 12:18 44.74339 -2.87390 32488 ft 315 kts 13°
2026-04-30 12:18 44.78620 -2.85772 32559 ft 321 kts 14°
2026-04-30 12:19 44.80766 -2.84916 32714 ft 320 kts 14°
2026-04-30 12:19 44.82902 -2.84033 32856 ft 320 kts 15°
2026-04-30 12:19 44.87180 -2.82176 32997 ft 323 kts 16°
2026-04-30 12:20 44.91466 -2.80194 33202 ft 325 kts 17°
2026-04-30 12:20 44.93601 -2.79160 33303 ft 325 kts 18°
2026-04-30 12:20 44.95737 -2.78096 33385 ft 326 kts 18°
2026-04-30 12:21 45.00009 -2.75876 33556 ft 328 kts 19°
2026-04-30 12:21 45.04244 -2.73552 33735 ft 329 kts 20°
2026-04-30 12:22 45.08496 -2.71095 33889 ft 331 kts 21°
2026-04-30 12:22 45.12735 -2.68519 34056 ft 332 kts 23°
2026-04-30 12:23 45.17023 -2.65788 33901 ft 343 kts 25°
2026-04-30 12:23 45.19178 -2.64368 34103 ft 339 kts 25°
2026-04-30 12:23 45.21299 -2.62938 34297 ft 336 kts 26°
2026-04-30 12:24 45.25513 -2.60000 34301 ft 341 kts 26°
2026-04-30 12:24 45.29743 -2.56916 34427 ft 341 kts 27°
2026-04-30 12:25 45.33929 -2.53729 34542 ft 342 kts 29°
2026-04-30 12:25 45.38097 -2.50421 34657 ft 343 kts 30°
2026-04-30 12:26 45.42215 -2.47017 34782 ft 343 kts 31°
2026-04-30 12:26 45.46310 -2.43492 34847 ft 345 kts 32°
2026-04-30 12:27 45.50376 -2.39852 34970 ft 345 kts 33°
2026-04-30 12:27 45.54407 -2.36101 35030 ft 347 kts 34°
2026-04-30 12:28 45.58410 -2.32232 35058 ft 350 kts 36°
2026-04-30 12:28 45.62410 -2.28216 35112 ft 351 kts 37°
2026-04-30 12:29 45.64379 -2.26183 35248 ft 346 kts 38°
2026-04-30 12:29 45.66292 -2.24181 35340 ft 346 kts 38°
2026-04-30 12:29 45.70188 -2.19995 35176 ft 354 kts 39°
2026-04-30 12:30 45.74063 -2.15684 35383 ft 350 kts 40°
2026-04-30 12:30 45.77864 -2.11313 35459 ft 350 kts 41°
2026-04-30 12:31 45.81619 -2.06847 35534 ft 351 kts 42°
2026-04-30 12:31 45.85328 -2.02288 35608 ft 351 kts 43°
2026-04-30 12:32 45.88986 -1.97638 35666 ft 352 kts 44°
2026-04-30 12:32 45.92600 -1.92892 35744 ft 352 kts 45°
2026-04-30 12:33 45.96158 -1.88067 35803 ft 352 kts 46°
2026-04-30 12:33 45.99658 -1.83164 35915 ft 351 kts 47°
2026-04-30 12:34 46.03102 -1.78181 35949 ft 352 kts 49°
2026-04-30 12:34 46.06495 -1.73108 36010 ft 351 kts 49°
2026-04-30 12:35 46.09825 -1.67966 36065 ft 352 kts 50°
2026-04-30 12:35 46.13107 -1.62730 36105 ft 352 kts 51°
2026-04-30 12:36 46.16331 -1.57418 36153 ft 352 kts 52°
2026-04-30 12:36 46.19489 -1.52041 36251 ft 350 kts 53°
2026-04-30 12:37 46.22568 -1.46623 36284 ft 352 kts 54°
2026-04-30 12:37 46.25607 -1.41095 36372 ft 351 kts 55°
2026-04-30 12:38 46.28586 -1.35493 36378 ft 352 kts 56°
2026-04-30 12:38 46.31505 -1.29813 36420 ft 352 kts 57°
2026-04-30 12:39 46.34361 -1.24066 36450 ft 352 kts 58°
2026-04-30 12:39 46.37156 -1.18243 36464 ft 352 kts 59°
2026-04-30 12:40 46.39891 -1.12343 36478 ft 353 kts 60°
2026-04-30 12:40 46.42560 -1.06379 36542 ft 352 kts 61°
2026-04-30 12:41 46.45163 -1.00354 36552 ft 353 kts 62°
2026-04-30 12:41 46.47280 -0.95288 36587 ft 353 kts 62°
2026-04-30 12:42 46.49760 -0.89149 36628 ft 353 kts 63°
2026-04-30 12:42 46.52563 -0.81926 36657 ft 353 kts 64°
2026-04-30 12:43 46.54523 -0.76681 36692 ft 353 kts 65°
2026-04-30 12:43 46.56800 -0.70367 36706 ft 353 kts 66°
2026-04-30 12:44 46.59011 -0.63987 36741 ft 353 kts 66°
2026-04-30 12:44 46.61135 -0.57609 36772 ft 353 kts 68°
2026-04-30 12:45 46.63204 -0.51130 36795 ft 353 kts 68°
2026-04-30 12:45 46.65203 -0.44601 36823 ft 353 kts 69°
2026-04-30 12:46 46.67130 -0.38023 36840 ft 353 kts 70°
2026-04-30 12:46 46.68986 -0.31396 36889 ft 353 kts 71°
2026-04-30 12:47 46.70771 -0.24723 36903 ft 353 kts 72°
2026-04-30 12:47 46.72481 -0.18010 36931 ft 353 kts 73°
2026-04-30 12:48 46.74118 -0.11256 36949 ft 353 kts 74°
2026-04-30 12:48 46.75683 -0.04458 36968 ft 354 kts 75°
2026-04-30 12:49 46.77173 0.02376 36981 ft 353 kts 75°
2026-04-30 12:49 46.78588 0.09250 37010 ft 353 kts 76°
2026-04-30 12:50 46.79927 0.16148 37023 ft 353 kts 77°
2026-04-30 12:50 46.81190 0.23073 37036 ft 354 kts 78°
2026-04-30 12:51 46.82380 0.30050 37064 ft 354 kts 79°
2026-04-30 12:51 46.83492 0.37037 37085 ft 354 kts 80°
2026-04-30 12:52 46.84529 0.44065 37088 ft 354 kts 81°
2026-04-30 12:52 46.85490 0.51120 37113 ft 354 kts 81°
2026-04-30 12:53 46.86366 0.58140 37137 ft 354 kts 82°
2026-04-30 12:53 46.87173 0.65234 37148 ft 354 kts 83°
2026-04-30 12:54 46.87901 0.72343 37175 ft 354 kts 84°
2026-04-30 12:54 46.88553 0.79474 37191 ft 354 kts 85°
2026-04-30 12:55 46.89127 0.86619 37210 ft 354 kts 86°
2026-04-30 12:55 46.89623 0.93769 37227 ft 354 kts 87°
2026-04-30 12:56 46.90041 1.00933 37246 ft 354 kts 88°
2026-04-30 12:56 46.90380 1.08106 37264 ft 354 kts 89°
2026-04-30 12:57 46.90640 1.15285 37286 ft 353 kts 90°
2026-04-30 12:57 46.90821 1.22473 37287 ft 354 kts 90°
2026-04-30 12:58 46.90923 1.29670 37289 ft 354 kts 91°
2026-04-30 12:58 46.90946 1.36867 37321 ft 354 kts 92°
2026-04-30 12:59 46.90891 1.44057 37320 ft 354 kts 93°
2026-04-30 12:59 46.90759 1.51252 37335 ft 354 kts 94°
2026-04-30 13:00 46.90549 1.58431 37358 ft 354 kts 95°
2026-04-30 13:00 46.90261 1.65610 37353 ft 354 kts 96°
2026-04-30 13:01 46.89895 1.72799 37343 ft 355 kts 96°
2026-04-30 13:01 46.89452 1.79973 37378 ft 354 kts 98°
2026-04-30 13:02 46.88935 1.87089 37358 ft 355 kts 99°
2026-04-30 13:02 46.88337 1.94241 37379 ft 354 kts 99°
2026-04-30 13:03 46.87664 2.01364 37378 ft 354 kts 100°
2026-04-30 13:03 46.86912 2.08485 37350 ft 355 kts 100°
2026-04-30 13:04 46.86079 2.15601 37370 ft 355 kts 102°
2026-04-30 13:04 46.85171 2.22677 37375 ft 355 kts 102°
2026-04-30 13:05 46.84184 2.29745 37380 ft 355 kts 104°
2026-04-30 13:06 46.82561 2.40268 37410 ft 354 kts 105°
2026-04-30 13:06 46.81440 2.47323 37174 ft 362 kts 98°
2026-04-30 13:06 46.81346 2.50999 37081 ft 364 kts 84°
2026-04-30 13:07 46.81857 2.54618 37083 ft 364 kts 71°
2026-04-30 13:07 46.82910 2.58011 36713 ft 376 kts 60°
2026-04-30 13:07 46.84481 2.61200 36018 ft 399 kts 49°
2026-04-30 13:07 46.86558 2.64042 35398 ft 421 kts 38°
2026-04-30 13:08 46.89163 2.66173 34931 ft 439 kts 17°
2026-04-30 13:08 46.92207 2.66747 34770 ft 448 kts 355°
2026-04-30 13:08 46.95240 2.65661 34624 ft 455 kts 334°
2026-04-30 13:08 46.97851 2.63036 34486 ft 461 kts 313°
2026-04-30 13:09 46.99758 2.59247 34349 ft 466 kts 300°
2026-04-30 13:09 47.01429 2.55208 34190 ft 474 kts 301°
2026-04-30 13:09 47.03149 2.51046 34035 ft 480 kts 300°
2026-04-30 13:10 47.06900 2.42943 34082 ft 484 kts 314°
2026-04-30 13:10 47.11933 2.36290 34090 ft 489 kts 319°
2026-04-30 13:10 47.14459 2.33024 34080 ft 475 kts 319°
2026-04-30 13:11 47.16913 2.29843 34081 ft 466 kts 318°
2026-04-30 13:11 47.21710 2.23596 34084 ft 457 kts 318°
2026-04-30 13:12 47.26459 2.17386 34081 ft 457 kts 318°
2026-04-30 13:12 47.31209 2.11157 34078 ft 457 kts 318°
2026-04-30 13:13 47.38340 2.01789 34074 ft 458 kts 318°
2026-04-30 13:14 47.45479 1.92383 34077 ft 458 kts 318°
2026-04-30 13:14 47.52602 1.82955 34080 ft 458 kts 318°
2026-04-30 13:15 47.59717 1.73493 34070 ft 459 kts 318°
2026-04-30 13:16 47.64462 1.67165 34080 ft 459 kts 317°
2026-04-30 13:16 47.69202 1.60821 34078 ft 459 kts 317°
2026-04-30 13:17 47.76312 1.51271 34083 ft 459 kts 317°
2026-04-30 13:18 47.83424 1.41713 34077 ft 460 kts 318°
2026-04-30 13:18 47.90513 1.32141 34081 ft 461 kts 317°
2026-04-30 13:19 47.95243 1.25713 34095 ft 460 kts 317°
2026-04-30 13:19 47.99977 1.19276 34088 ft 461 kts 317°
2026-04-30 13:20 48.04719 1.12804 34067 ft 462 kts 317°
2026-04-30 13:20 48.09467 1.06322 34079 ft 462 kts 317°
2026-04-30 13:21 48.14215 0.99830 34083 ft 462 kts 317°
2026-04-30 13:22 48.21314 0.90067 34086 ft 462 kts 317°
2026-04-30 13:22 48.28415 0.80248 34078 ft 464 kts 317°
2026-04-30 13:23 48.35539 0.70403 34087 ft 464 kts 317°
2026-04-30 13:24 48.44951 0.57297 34086 ft 457 kts 317°
2026-04-30 13:25 48.54367 0.44102 34093 ft 466 kts 317°
2026-04-30 13:26 48.66126 0.27556 34086 ft 463 kts 317°
2026-04-30 13:28 48.77902 0.10871 34077 ft 465 kts 316°
2026-04-30 13:28 48.84971 0.00804 34089 ft 465 kts 316°
2026-04-30 13:29 48.94381 -0.12659 34103 ft 464 kts 316°
2026-04-30 13:31 49.05325 -0.28398 34115 ft 464 kts 316°
2026-04-30 13:32 49.17017 -0.45382 34111 ft 464 kts 316°
2026-04-30 13:33 49.26370 -0.59008 34088 ft 465 kts 316°
2026-04-30 13:34 49.33381 -0.69283 34095 ft 465 kts 316°
2026-04-30 13:35 49.42706 -0.83011 34097 ft 465 kts 315°
2026-04-30 13:36 49.52008 -0.96811 34099 ft 465 kts 315°
2026-04-30 13:36 49.59001 -1.07207 34103 ft 466 kts 315°
2026-04-30 13:37 49.65955 -1.17603 34108 ft 466 kts 315°
2026-04-30 13:38 49.72937 -1.28081 34107 ft 467 kts 315°
2026-04-30 13:39 49.82248 -1.42129 34112 ft 468 kts 315°
2026-04-30 13:40 49.89233 -1.52688 34122 ft 467 kts 314°
2026-04-30 13:40 49.93924 -1.59684 34124 ft 468 kts 321°
2026-04-30 13:40 49.96591 -1.62561 33880 ft 466 kts 330°
2026-04-30 13:41 49.99544 -1.64693 33598 ft 468 kts 342°
2026-04-30 13:41 50.02666 -1.65825 33329 ft 468 kts 355°
2026-04-30 13:41 50.05916 -1.65844 33065 ft 467 kts
2026-04-30 13:41 50.09074 -1.64789 32802 ft 465 kts 19°
2026-04-30 13:42 50.12162 -1.63263 32538 ft 466 kts 20°
2026-04-30 13:42 50.15264 -1.61740 32287 ft 467 kts 20°
2026-04-30 13:42 50.21490 -1.58720 31753 ft 469 kts 19°
2026-04-30 13:43 50.24602 -1.57211 31515 ft 470 kts 20°
2026-04-30 13:43 50.27732 -1.55688 30956 ft 471 kts 19°
2026-04-30 13:43 50.30889 -1.54147 29764 ft 478 kts 20°
2026-04-30 13:43 50.34072 -1.52586 28728 ft 479 kts 20°
2026-04-30 13:44 50.37257 -1.51025 27683 ft 479 kts 20°
2026-04-30 13:44 50.40394 -1.49485 26512 ft 484 kts 20°
2026-04-30 13:44 50.43667 -1.47874 25718 ft 480 kts 21°
2026-04-30 13:44 50.46831 -1.46319 25018 ft 475 kts 21°
2026-04-30 13:45 50.53093 -1.43168 23559 ft 466 kts 26°
2026-04-30 13:45 50.55949 -1.41065 22851 ft 455 kts 33°
2026-04-30 13:45 50.58700 -1.38702 22201 ft 447 kts 33°
2026-04-30 13:46 50.61404 -1.36374 21600 ft 440 kts 33°
2026-04-30 13:46 50.64067 -1.34077 20974 ft 433 kts 33°
2026-04-30 13:46 50.66687 -1.31822 20398 ft 426 kts 33°
2026-04-30 13:46 50.69267 -1.29601 19835 ft 419 kts 33°
2026-04-30 13:47 50.71804 -1.27413 19276 ft 411 kts 33°
2026-04-30 13:47 50.74306 -1.25248 18758 ft 409 kts 33°
2026-04-30 13:47 50.76779 -1.23075 18214 ft 405 kts 34°
2026-04-30 13:47 50.79179 -1.20777 17705 ft 401 kts 36°
2026-04-30 13:48 50.81540 -1.18356 17215 ft 397 kts 38°
2026-04-30 13:48 50.83819 -1.15940 16761 ft 394 kts 38°
2026-04-30 13:48 50.86085 -1.13524 16321 ft 391 kts 38°
2026-04-30 13:48 50.88162 -1.11323 15889 ft 388 kts 37°
2026-04-30 13:49 50.90454 -1.08919 15416 ft 385 kts 37°
2026-04-30 13:49 50.92683 -1.06599 14952 ft 381 kts 37°
2026-04-30 13:49 50.94887 -1.04311 14464 ft 378 kts 37°
2026-04-30 13:49 50.97085 -1.02033 13981 ft 374 kts 37°
2026-04-30 13:50 50.99249 -0.99777 13436 ft 370 kts 39°
2026-04-30 13:50 51.02994 -0.94158 11879 ft 380 kts 52°
2026-04-30 13:50 51.04740 -0.91035 11393 ft 372 kts 52°
2026-04-30 13:51 51.06422 -0.88033 11270 ft 354 kts 52°
2026-04-30 13:51 51.08026 -0.85175 11150 ft 338 kts 52°
2026-04-30 13:51 51.09554 -0.82453 11026 ft 323 kts 52°
2026-04-30 13:51 51.11014 -0.79846 10906 ft 309 kts 53°
2026-04-30 13:52 51.12419 -0.77330 10653 ft 300 kts 53°
2026-04-30 13:52 51.13794 -0.74857 10333 ft 295 kts 53°
2026-04-30 13:52 51.15147 -0.72423 10231 ft 293 kts 53°
2026-04-30 13:52 51.16496 -0.69990 9977 ft 294 kts 53°
2026-04-30 13:53 51.17837 -0.67580 9784 ft 284 kts 53°
2026-04-30 13:53 51.19128 -0.65277 9629 ft 272 kts 53°
2026-04-30 13:53 51.20358 -0.63078 9504 ft 261 kts 53°
2026-04-30 13:53 51.21547 -0.60945 9208 ft 255 kts 54°
2026-04-30 13:54 51.22699 -0.58861 8879 ft 253 kts 54°
2026-04-30 13:54 51.23878 -0.56721 8529 ft 252 kts 54°
2026-04-30 13:54 51.25018 -0.54659 8193 ft 250 kts 54°
2026-04-30 13:54 51.26179 -0.52557 7837 ft 249 kts 54°
2026-04-30 13:55 51.27462 -0.50736 7494 ft 256 kts 31°
2026-04-30 13:55 51.29188 -0.50074 7274 ft 261 kts
2026-04-30 13:55 51.30930 -0.50893 7166 ft 267 kts 327°
2026-04-30 13:55 51.32181 -0.53049 7191 ft 265 kts 294°
2026-04-30 13:56 51.32813 -0.55798 7190 ft 264 kts 284°
2026-04-30 13:56 51.33380 -0.58580 7189 ft 263 kts 284°
2026-04-30 13:56 51.33945 -0.61369 7209 ft 263 kts 284°
2026-04-30 13:56 51.34503 -0.64142 7210 ft 262 kts 284°
2026-04-30 13:57 51.35056 -0.66906 7073 ft 258 kts 283°
2026-04-30 13:57 51.35592 -0.69638 6681 ft 258 kts 283°
2026-04-30 13:57 51.36123 -0.72362 6391 ft 251 kts 283°
2026-04-30 13:57 51.36632 -0.74947 6201 ft 238 kts 284°
2026-04-30 13:58 51.37459 -0.77216 5782 ft 240 kts 313°
2026-04-30 13:58 51.40364 -0.78754 5285 ft 214 kts
2026-04-30 13:58 51.41852 -0.78833 4848 ft 213 kts
2026-04-30 13:59 51.43332 -0.78909 4396 ft 211 kts
2026-04-30 13:59 51.44778 -0.78985 4031 ft 205 kts
2026-04-30 13:59 51.46183 -0.78980 3636 ft 198 kts 15°
2026-04-30 13:59 51.47268 -0.77922 3275 ft 176 kts 59°
2026-04-30 14:00 51.47597 -0.76154 3001 ft 163 kts 94°
2026-04-30 14:00 51.47621 -0.72424 2947 ft 168 kts 92°
2026-04-30 14:00 51.47636 -0.70582 2786 ft 169 kts 91°
2026-04-30 14:01 51.47648 -0.68715 2574 ft 163 kts 92°
2026-04-30 14:01 51.47658 -0.66923 2361 ft 159 kts 92°
2026-04-30 14:01 51.47669 -0.65157 2165 ft 156 kts 92°
2026-04-30 14:01 51.47678 -0.63412 1943 ft 156 kts 92°
2026-04-30 14:02 51.47687 -0.61682 1743 ft 155 kts 92°
2026-04-30 14:02 51.47695 -0.59941 1536 ft 155 kts 92°
2026-04-30 14:02 51.47704 -0.58255 1319 ft 143 kts 92°
2026-04-30 14:02 51.47712 -0.56709 1141 ft 136 kts 92°
2026-04-30 14:03 51.47719 -0.55199 957 ft 135 kts 90°
2026-04-30 14:03 51.47726 -0.53721 784 ft 131 kts 92°
2026-04-30 14:03 51.47732 -0.52212 585 ft 138 kts 87°
2026-04-30 14:03 51.47738 -0.50698 387 ft 139 kts 88°
2026-04-30 14:04 51.47744 -0.49194 220 ft 133 kts 89°
2026-04-30 14:04 51.47750 -0.47735 90 ft 126 kts 90°
2026-04-30 14:04 51.47755 -0.46566 94 ft 78 kts 89°
2026-04-30 14:04 51.47760 -0.45976 84 ft 30 kts 90°
2026-04-30 14:05 51.47759 -0.45655 84 ft 27 kts 90°
2026-04-30 14:05 51.47713 -0.45475 85 ft 17 kts 159°
2026-04-30 14:05 51.47606 -0.45496 88 ft 15 kts 229°
2026-04-30 14:05 51.47592 -0.45647 85 ft 13 kts 268°
2026-04-30 14:06 51.47544 -0.45743 87 ft 11 kts 207°
2026-04-30 14:06 51.47517 -0.46015 85 ft 23 kts 269°
2026-04-30 14:07 51.47515 -0.46512 85 ft 21 kts 269°
2026-04-30 14:07 51.47506 -0.46738 88 ft 19 kts 246°
2026-04-30 14:07 51.47493 -0.46935 85 ft 17 kts 270°
2026-04-30 14:08 51.47492 -0.47289 85 ft 15 kts 270°
2026-04-30 14:08 51.47491 -0.47448 85 ft 14 kts 270°
2026-04-30 14:08 51.47490 -0.47731 85 ft 12 kts 270°
2026-04-30 14:09 51.47490 -0.47859 85 ft 13 kts 270°
2026-04-30 14:09 51.47490 -0.48132 85 ft 33 kts 270°
2026-04-30 14:09 51.47423 -0.48479 85 ft 3 kts 187°
2026-04-30 14:10 51.47410 -0.48495 89 ft 5 kts 233°
2026-04-30 14:10 51.47399 -0.48551 87 ft 3 kts 266°
2026-04-30 14:10 51.47399 -0.48578 85 ft 0 kts 268°
2026-04-30 14:10 51.47399 -0.48581 85 ft 0 kts 268°
2026-04-30 14:11 51.47399 -0.48584 85 ft 0 kts 269°